This is the latest recevied weather packets stored in our database for station/object N4QD-13. If no packets are shown the sender has not sent any weather packets the latest 10 day(s).
| Time | Temp. | Humidity | Pressure | Rain* | Wind** | Luminosity | Snow |
|---|---|---|---|---|---|---|---|
| 1778061100 | 17.78° C | 72% | 1010.4 hPa | 0 mm | - | 0 W/m² | - |
| 1778060798 | 17.78° C | 71% | 1010.4 hPa | 0 mm | - | 0 W/m² | - |
| 1778060496 | 18.33° C | 71% | 1010.4 hPa | 0 mm | - | 0 W/m² | - |
| 1778060194 | 18.33° C | 70% | 1010.5 hPa | 0 mm | - | 0 W/m² | - |
| 1778059891 | 18.33° C | 69% | 1010.4 hPa | 0 mm | - | 0 W/m² | - |
| 1778059589 | 18.33° C | 69% | 1010.4 hPa | 0 mm | - | 0 W/m² | - |
| 1778059285 | 18.33° C | 68% | 1010.3 hPa | 0 mm | - | 0 W/m² | - |
| 1778058983 | 18.33° C | 67% | 1010.2 hPa | 0 mm | - | 0 W/m² | - |
| 1778058681 | 18.89° C | 67% | 1010.5 hPa | 0 mm | - | 0 W/m² | - |
| 1778058379 | 18.89° C | 66% | 1010.5 hPa | 0 mm | - | 0 W/m² | - |
| 1778058074 | 18.89° C | 66% | 1010.3 hPa | 0 mm | - | 0 W/m² | - |
| 1778057772 | 18.89° C | 65% | 1010.4 hPa | 0 mm | - | 0 W/m² | - |
| 1778057468 | 19.44° C | 64% | 1010.6 hPa | 0 mm | - | 0 W/m² | - |
| 1778057165 | 19.44° C | 63% | 1010.7 hPa | 0 mm | - | 0 W/m² | - |
| 1778056861 | 20° C | 62% | 1010.6 hPa | 0 mm | - | 0 W/m² | - |
| 1778056558 | 20.56° C | 60% | 1010.5 hPa | 0 mm | - | 0 W/m² | - |
| 1778056256 | 20.56° C | 59% | 1010.4 hPa | 0 mm | - | 0 W/m² | - |
| 1778055952 | 20.56° C | 58% | 1010.5 hPa | 0 mm | - | 0 W/m² | - |
| 1778055648 | 20.56° C | 59% | 1010.5 hPa | 0 mm | - | 0 W/m² | - |
| 1778055347 | 20.56° C | 59% | 1010.5 hPa | 0 mm | - | 0 W/m² | - |
| 1778055043 | 20° C | 60% | 1010.6 hPa | 0 mm | - | 0 W/m² | - |
| 1778054741 | 20° C | 60% | 1010.6 hPa | 0 mm | - | 0 W/m² | - |
| 1778054438 | 20° C | 60% | 1010.6 hPa | 0 mm | - | 0 W/m² | - |
| 1778054136 | 20° C | 60% | 1010.7 hPa | 0 mm | - | 0 W/m² | - |
| 1778053832 | 20° C | 60% | 1010.6 hPa | 0 mm | - | 0 W/m² | - |
* Rain latest hour (hover to see other rain measurements)
** Current wind speed in m/s (hover to see current wind gust speed)